User: anonymous   Login
Location: Unspecified
(0.0000°N, 0.0000°E)
Time: 08:34:35
(UTC+02:00)
Language:

Cosmos 1953 Rocket - Orbit

View from above orbital plane
View from above orbital plane
View from above satellite
View from above satellite

Ground track
Ground track

The orbit data is extracted from the following two-line orbital elements,

1 19211U 88050B   15090.83587737  .00000778  00000-0  93357-4 0  9991
2 19211 082.5258 238.3052 0020554 259.8953 264.0333 14.82688295446992
Epoch (UTC): 31 March 2015 20:03:39
Eccentricity: 0.0020554
inclination: 82.5258°
perigee height: 606 km
apogee height: 635 km
right ascension of ascending node: 238.3052°
argument of perigee: 259.8953°
revolutions per day: 14.82688295
mean anomaly at epoch: 264.0333°
orbit number at epoch: 44699

The dashed part of the orbit path shows where the satellite is in the earth's shadow,  

DLR